Time,TemperatureF,DewpointF,PressureIn,WindDirection,WindDirectionDegrees,WindSpeedMPH,WindSpeedGustMPH,Humidity,HourlyPrecipIn,Conditions,Clouds,dailyrainin,SolarRadiationWatts/m^2,SoftwareType,DateUTC
2013-08-12 00:01:00,65.0,43.0,-100.00,South,180,7.0,14.0,44,0.00,,,0.00,0.000000,,2013-08-12 07:01:00,
2013-08-12 00:02:00,65.0,37.0,-100.00,SE,133,6.0,11.0,36,0.00,,,0.00,0.000000,,2013-08-12 07:02:00,
2013-08-12 00:22:00,65.0,37.0,-100.00,SE,133,6.0,11.0,36,0.00,,,0.00,0.000000,,2013-08-12 07:22:00,
2013-08-12 00:33:00,65.0,37.0,-100.00,SE,133,6.0,11.0,36,0.00,,,0.00,0.000000,,2013-08-12 07:33:00,
2013-08-12 00:43:00,65.0,37.0,-100.00,SE,133,6.0,11.0,36,0.00,,,0.00,0.000000,,2013-08-12 07:43:00,
2013-08-12 00:52:00,65.0,37.0,-100.00,SE,133,6.0,11.0,36,0.00,,,0.00,0.000000,,2013-08-12 07:52:00,
2013-08-12 01:02:00,64.0,33.0,-100.00,SE,146,4.0,9.0,31,0.00,,,0.00,0.000000,,2013-08-12 08:02:00,
2013-08-12 01:33:00,64.0,33.0,-100.00,SE,146,4.0,9.0,31,0.00,,,0.00,0.000000,,2013-08-12 08:33:00,
2013-08-12 01:43:00,64.0,33.0,-100.00,SE,146,4.0,9.0,31,0.00,,,0.00,0.000000,,2013-08-12 08:43:00,
2013-08-12 01:53:00,64.0,33.0,-100.00,SE,146,4.0,9.0,31,0.00,,,0.00,0.000000,,2013-08-12 08:53:00,
2013-08-12 02:32:00,61.0,28.0,-100.00,ESE,122,4.0,5.0,28,0.00,,,0.00,0.000000,,2013-08-12 09:32:00,
2013-08-12 02:43:00,61.0,28.0,-100.00,ESE,122,4.0,5.0,28,0.00,,,0.00,0.000000,,2013-08-12 09:43:00,
2013-08-12 02:53:00,61.0,28.0,-100.00,ESE,122,4.0,5.0,28,0.00,,,0.00,0.000000,,2013-08-12 09:53:00,
2013-08-12 03:01:00,61.0,28.0,-100.00,ESE,122,4.0,5.0,28,0.00,,,0.00,0.000000,,2013-08-12 10:01:00,
2013-08-12 03:32:00,60.0,23.0,-100.00,ESE,113,3.0,5.0,24,0.00,,,-99.99,0.000000,,2013-08-12 10:32:00,
2013-08-12 03:43:00,60.0,23.0,-100.00,ESE,113,3.0,5.0,24,0.00,,,-99.99,0.000000,,2013-08-12 10:43:00,
2013-08-12 03:52:00,60.0,23.0,-100.00,ESE,113,3.0,5.0,24,0.00,,,-99.99,0.000000,,2013-08-12 10:52:00,
2013-08-12 04:01:00,60.0,23.0,-100.00,ESE,113,3.0,5.0,24,0.00,,,-99.99,0.000000,,2013-08-12 11:01:00,
2013-08-12 04:32:00,59.0,22.0,-100.00,ESE,119,4.0,5.0,24,0.00,,,0.00,0.000000,,2013-08-12 11:32:00,
2013-08-12 04:42:00,59.0,22.0,-100.00,ESE,119,4.0,5.0,24,0.00,,,0.00,0.000000,,2013-08-12 11:42:00,
2013-08-12 05:32:00,57.0,27.0,-100.00,East,95,4.0,5.0,31,0.00,,,0.00,0.000000,,2013-08-12 12:32:00,
2013-08-12 05:43:00,57.0,27.0,-100.00,East,95,4.0,5.0,31,0.00,,,0.00,0.000000,,2013-08-12 12:43:00,
2013-08-12 05:52:00,57.0,27.0,-100.00,East,95,4.0,5.0,31,0.00,,,0.00,0.000000,,2013-08-12 12:52:00,
2013-08-12 06:01:00,57.0,27.0,-100.00,East,95,4.0,5.0,31,0.00,,,0.00,0.000000,,2013-08-12 13:01:00,
2013-08-12 06:33:00,57.0,26.0,-100.00,ESE,102,3.0,5.0,30,0.00,,,0.00,0.000000,,2013-08-12 13:33:00,
2013-08-12 06:43:00,57.0,26.0,-100.00,ESE,102,3.0,5.0,30,0.00,,,0.00,0.000000,,2013-08-12 13:43:00,
2013-08-12 06:53:00,57.0,26.0,-100.00,ESE,102,3.0,5.0,30,0.00,,,0.00,0.000000,,2013-08-12 13:53:00,
2013-08-12 07:01:00,57.0,26.0,-100.00,ESE,102,3.0,5.0,30,0.00,,,0.00,0.000000,,2013-08-12 14:01:00,
2013-08-12 07:32:00,63.0,29.0,-100.00,East,94,1.0,3.0,27,0.00,,,0.00,25.000000,,2013-08-12 14:32:00,
2013-08-12 07:42:00,63.0,29.0,-100.00,East,94,1.0,3.0,27,0.00,,,0.00,25.000000,,2013-08-12 14:42:00,
2013-08-12 07:52:00,63.0,29.0,-100.00,East,94,1.0,3.0,27,0.00,,,0.00,25.000000,,2013-08-12 14:52:00,
2013-08-12 08:01:00,63.0,29.0,-100.00,East,94,1.0,3.0,27,0.00,,,0.00,25.000000,,2013-08-12 15:01:00,
2013-08-12 08:43:00,73.0,31.0,-100.00,East,88,2.0,3.0,21,0.00,,,0.00,219.000000,,2013-08-12 15:43:00,
2013-08-12 08:52:00,73.0,31.0,-100.00,East,88,2.0,3.0,21,0.00,,,0.00,219.000000,,2013-08-12 15:52:00,
2013-08-12 09:01:00,73.0,31.0,-100.00,East,88,2.0,3.0,21,0.00,,,0.00,219.000000,,2013-08-12 16:01:00,
2013-08-12 09:33:00,78.0,30.0,-100.00,SW,231,3.0,5.0,17,0.00,,,0.00,480.000000,,2013-08-12 16:33:00,
2013-08-12 09:43:00,78.0,30.0,-100.00,SW,231,3.0,5.0,17,0.00,,,0.00,480.000000,,2013-08-12 16:43:00,
2013-08-12 09:53:00,78.0,30.0,-100.00,SW,231,3.0,5.0,17,0.00,,,0.00,480.000000,,2013-08-12 16:53:00,
2013-08-12 10:01:00,78.0,30.0,-100.00,SW,231,3.0,5.0,17,0.00,,,0.00,480.000000,,2013-08-12 17:01:00,
2013-08-12 10:32:00,80.0,30.0,-100.00,SW,230,5.0,8.0,16,0.00,,,0.00,716.000000,,2013-08-12 17:32:00,
2013-08-12 10:43:00,80.0,30.0,-100.00,SW,230,5.0,8.0,16,0.00,,,0.00,716.000000,,2013-08-12 17:43:00,
2013-08-12 10:52:00,80.0,30.0,-100.00,SW,230,5.0,8.0,16,0.00,,,0.00,716.000000,,2013-08-12 17:52:00,
2013-08-12 11:01:00,80.0,30.0,-100.00,SW,230,5.0,8.0,16,0.00,,,0.00,716.000000,,2013-08-12 18:01:00,
2013-08-12 11:32:00,82.0,30.0,-100.00,SSE,152,7.0,12.0,15,0.00,,,0.00,915.000000,,2013-08-12 18:32:00,
2013-08-12 11:43:00,82.0,30.0,-100.00,SSE,152,7.0,12.0,15,0.00,,,0.00,915.000000,,2013-08-12 18:43:00,
2013-08-12 11:52:00,82.0,30.0,-100.00,SSE,152,7.0,12.0,15,0.00,,,0.00,915.000000,,2013-08-12 18:52:00,
2013-08-12 12:01:00,82.0,30.0,-100.00,SSE,152,7.0,12.0,15,0.00,,,0.00,915.000000,,2013-08-12 19:01:00,
2013-08-12 12:02:00,83.0,31.0,-100.00,SSE,147,9.0,15.0,15,0.00,,,0.00,1060.000000,,2013-08-12 19:02:00,
2013-08-12 12:33:00,83.0,31.0,-100.00,SSE,147,9.0,15.0,15,0.00,,,0.00,1060.000000,,2013-08-12 19:33:00,
2013-08-12 15:01:00,85.0,29.0,-100.00,SSE,154,10.0,20.0,13,0.00,,,0.00,1142.000000,,2013-08-12 22:01:00,
2013-08-12 15:32:00,83.0,31.0,-100.00,SE,145,11.0,19.0,15,0.00,,,0.00,1082.000000,,2013-08-12 22:32:00,
2013-08-12 15:43:00,83.0,31.0,-100.00,SE,145,11.0,19.0,15,0.00,,,0.00,1082.000000,,2013-08-12 22:43:00,
2013-08-12 15:53:00,83.0,31.0,-100.00,SE,145,11.0,19.0,15,0.00,,,0.00,1082.000000,,2013-08-12 22:53:00,
2013-08-12 17:02:00,80.0,30.0,-100.00,SSE,147,10.0,19.0,16,0.00,,,0.00,765.000000,,2013-08-13 00:02:00,
2013-08-12 17:45:00,80.0,30.0,-100.00,SSE,147,10.0,19.0,16,0.00,,,0.00,765.000000,,2013-08-13 00:45:00,
2013-08-12 17:53:00,80.0,30.0,-100.00,SSE,147,10.0,19.0,16,0.00,,,0.00,765.000000,,2013-08-13 00:53:00,
2013-08-12 18:02:00,78.0,32.0,-100.00,SSE,150,9.0,16.0,19,0.00,,,0.00,523.000000,,2013-08-13 01:02:00,
2013-08-12 18:42:00,78.0,32.0,-100.00,SSE,150,9.0,16.0,19,0.00,,,0.00,523.000000,,2013-08-13 01:42:00,
2013-08-12 18:55:00,78.0,32.0,-100.00,SSE,150,9.0,16.0,19,0.00,,,0.00,523.000000,,2013-08-13 01:55:00,
2013-08-12 19:02:00,74.0,38.0,-100.00,SE,141,10.0,17.0,27,0.00,,,0.00,260.000000,,2013-08-13 02:02:00,
2013-08-12 19:43:00,74.0,38.0,-100.00,SE,141,10.0,17.0,27,0.00,,,0.00,260.000000,,2013-08-13 02:43:00,
2013-08-12 19:52:00,74.0,38.0,-100.00,SE,141,10.0,17.0,27,0.00,,,0.00,260.000000,,2013-08-13 02:52:00,
2013-08-12 20:02:00,71.0,42.0,-100.00,SSE,167,9.0,17.0,35,0.00,,,0.00,36.000000,,2013-08-13 03:02:00,
2013-08-12 20:43:00,71.0,42.0,-100.00,SSE,167,9.0,17.0,35,0.00,,,0.00,36.000000,,2013-08-13 03:43:00,
2013-08-12 20:54:00,71.0,42.0,-100.00,SSE,167,9.0,17.0,35,0.00,,,0.00,36.000000,,2013-08-13 03:54:00,
2013-08-12 21:02:00,69.0,46.0,-100.00,SSE,150,7.0,15.0,44,0.00,,,0.00,0.000000,,2013-08-13 04:02:00,
2013-08-12 21:42:00,69.0,46.0,-100.00,SSE,150,7.0,15.0,44,0.00,,,0.00,0.000000,,2013-08-13 04:42:00,
2013-08-12 21:53:00,69.0,46.0,-100.00,SSE,150,7.0,15.0,44,0.00,,,0.00,0.000000,,2013-08-13 04:53:00,
2013-08-12 22:42:00,68.0,43.0,-100.00,SSE,162,4.0,11.0,40,0.00,,,0.00,0.000000,,2013-08-13 05:42:00,
2013-08-12 22:52:00,68.0,43.0,-100.00,SSE,162,4.0,11.0,40,0.00,,,0.00,0.000000,,2013-08-13 05:52:00,
2013-08-12 23:01:00,68.0,43.0,-100.00,SSE,162,4.0,11.0,40,0.00,,,0.00,0.000000,,2013-08-13 06:01:00,
2013-08-12 23:42:00,65.0,34.0,-100.00,ESE,116,3.0,4.0,32,0.00,,,0.00,0.000000,,2013-08-13 06:42:00,
2013-08-12 23:52:00,65.0,34.0,-100.00,ESE,116,3.0,4.0,32,0.00,,,0.00,0.000000,,2013-08-13 06:52:00,